TimePDT,TemperatureF,Dew PointF,Humidity,Sea Level PressureIn,VisibilityMPH,Wind Direction,Wind SpeedMPH,Gust SpeedMPH,PrecipitationIn,Events,Conditions,WindDirDegrees,DateUTC
12:53 AM,55.9,41.0,57,29.87,10.0,NNW,4.6,-,N/A,,Clear,330,2013-05-17 07:53:00
1:53 AM,57.0,42.1,57,29.86,10.0,NW,8.1,-,N/A,,Mostly Cloudy,310,2013-05-17 08:53:00
2:53 AM,55.9,43.0,62,29.86,10.0,NW,10.4,-,N/A,,Partly Cloudy,310,2013-05-17 09:53:00
3:53 AM,53.1,42.1,66,29.85,10.0,North,5.8,-,N/A,,Clear,10,2013-05-17 10:53:00
5:53 AM,53.1,42.1,66,29.86,10.0,North,4.6,-,N/A,,Clear,350,2013-05-17 12:53:00
6:53 AM,55.9,43.0,62,29.88,10.0,Calm,Calm,-,N/A,,Clear,0,2013-05-17 13:53:00
7:53 AM,57.9,44.1,60,29.88,10.0,ENE,4.6,-,N/A,,Clear,60,2013-05-17 14:53:00
8:53 AM,61.0,44.1,54,29.88,10.0,Calm,Calm,-,N/A,,Clear,0,2013-05-17 15:53:00
9:53 AM,64.0,43.0,46,29.87,10.0,Calm,Calm,-,N/A,,Mostly Cloudy,0,2013-05-17 16:53:00
10:53 AM,68.0,43.0,40,29.87,10.0,Calm,Calm,-,N/A,,Partly Cloudy,0,2013-05-17 17:53:00
12:53 PM,71.1,43.0,36,29.84,10.0,SSW,10.4,16.1,N/A,,Partly Cloudy,200,2013-05-17 19:53:00
1:53 PM,72.0,44.1,37,29.83,10.0,SSW,13.8,19.6,N/A,,Scattered Clouds,210,2013-05-17 20:53:00
2:53 PM,73.9,42.1,32,29.83,10.0,SW,17.3,-,N/A,,Clear,220,2013-05-17 21:53:00
3:53 PM,70.0,42.1,36,29.85,10.0,West,4.6,-,N/A,,Mostly Cloudy,270,2013-05-17 22:53:00
4:53 PM,63.0,46.0,54,29.87,10.0,NE,15.0,-,N/A,,Overcast,40,2013-05-17 23:53:00
5:53 PM,64.9,45.0,48,29.87,10.0,NNE,8.1,-,N/A,,Partly Cloudy,20,2013-05-18 00:53:00
6:53 PM,64.0,46.0,52,29.87,10.0,Calm,Calm,-,N/A,,Overcast,0,2013-05-18 01:53:00
7:53 PM,60.1,46.9,62,29.90,10.0,WNW,12.7,-,N/A,,Overcast,300,2013-05-18 02:53:00
8:53 PM,57.9,48.9,72,29.91,10.0,NW,4.6,-,0.00,,Overcast,320,2013-05-18 03:53:00
9:53 PM,57.9,48.9,72,29.91,10.0,NW,4.6,-,N/A,,Mostly Cloudy,310,2013-05-18 04:53:00
10:53 PM,59.0,41.0,51,29.91,10.0,Variable,5.8,-,N/A,,Overcast,0,2013-05-18 05:53:00
11:53 PM,57.9,44.1,60,29.92,10.0,West,4.6,-,N/A,,Overcast,270,2013-05-18 06:53:00